STRV 1D

Satellite information

Favourite Embed

Satellite Type and Status

PAYLOADIN ORBIT

Key statistics

Satellite STRV 1D at a glance.

Uptime

9163

Days in orbit

Revolutions

≈ 2.0

Per day

Orbit

OTHER

Other

Inclination

6.8

Latest

Satellite identification and parameters

Extended collection of information and parameters for STRV 1D.

Object identification

Identified? True

Debris? False

Object name: STRV 1D

International designator: 2000-072D

Object number (NORAD): 26611

Object ID (CCSDS): 26611

Country: UNITED KINGDOM (UK)

Current information (Y/N): Y

RCS size: MEDIUM

Orbital parameters

Period: 707.968 minutes

Inclination: 6.7658 deg

SMA: 26312.942 km

Apoapsis: 39246.471 km

Periapsis: 623.143 km

RAAN: 68.6366 deg

Eccentricy: 0.73392266

Argument of periapsis: 62.1594 deg

Mean anomaly: 351.9755 deg

Mean motion: 2.03398928 rev/day

Mean motion (dot): 0.00000081 rev/day2

B* drag term: -0.0017108502 1/REarth

Two-line elements (TLE)

Creation date: Dec. 17, 2025, 11:34 a.m.

Reference frame: TEME

Reference center: EARTH

Epoch: Dec. 16, 2025, 7:24 p.m. UTC

TLE line 0: 0 STRV 1D

TLE line 1: 1 26611U 00072D 25350.80886654 .00000081 00000-0 -17109-2 0 9995

TLE line 2: 2 26611 6.7658 68.6366 7339227 62.1594 351.9755 2.03398928 86772

Live tracking on map

Real-time ground track for satellite STRV 1D.

In-orbit conjunctions

There are no conjunctions computed for STRV 1D, at the moment. Check back to stay up to date, as we update our databases every day.

Go to all conjunctions

Associated space launch

PAS-1R a commications satellite located at 40 degrees west, serving the Americas, the Caribbean, Europe and Africa, operated by PanAmSat. Amsat P3D was an amateur radio satellite built and operated by AmSat. STRV was a series of four satellites operated by the UK MoD, intended to test new technologies, two were launched on this vehicle.

STRV 1D was lifted into orbit during the mission ‘Ariane 5 G | PAS-1R, Amsat P3D, STRV 1C, STRV 1D’, on board a Ariane 5 G space rocket.

The launch took place on Nov. 16, 2000, 1:07 a.m. from Ariane Launch Area 3.

For more information about the launch, click the button.

Launch to space Ariane 5 G | PAS-1R, Amsat P3D, STRV 1C, STRV 1D
Ariane 5 G | PAS-1R, Amsat P3D, STRV 1C, STRV 1D

Agency: N/A

Status: Launch Successful

Launch date: Nov. 16, 2000, 1:07 a.m. UTC

Rocket: Ariane 5 G

Launch pad: Ariane Launch Area 3

Location: Guiana Space Centre, French Guiana

...

Latest news about this satellite

There are no fresh news available about this satellite. Check back as we update our databases every day.


Newsletter sign-up

Weekly statistics, charts and insights to help you stay on top of the space industry.